Location: Sungai Apap
(2.6167°N, 113.3833°E)
Time: 14:42:26
(UTC+00:00)

Cosmos 2219 - Pass Details

Date: 25 May 2024
Orbit: 834 x 858 km, 71.1° (Epoch: 12 June)

Event Time Altitude Azimuth Distance (km) Brightness Sun altitude
Exits shadow 20:20:38 71° 174° (S) 898 3.1 -27.4°
Maximum altitude 20:21:16 83° 105° (ESE) 859 3.1 -27.2°
Drops below altitude 10° 20:26:55 10° 18° (NNE) 2,460 6.1 -25.9°
Sets 20:29:21 0° 17° (NNE) 3,389 6.9 -25.4°
